EHI
0 0 0 0 0 0 0 0 0 0 0 0 0 0 0 0 0 0 0 0 0 0 0 0 0 0 0 0 0 0 0 0 0 0 0 0 0 0 0 0 0 0 0
0 0 0 0 0 0 0 0 0 0 0 0 0 0 0 0 0 0 0 0 0 0 0 0 0 0 0 0 0 0 0 0 0 0 0 0 0 0 0 0 0 0 0
0 0 0 0 0 0 0 0 0 0 0 0 0 0 0 0 0 0 0 0 0 0 0 0 0 0 0 0 0 0 0 0 0 0 0 0 0 0 0 0 0 0 0
0 0 0 0 0 0 0 0 0 0 0 0 0 0 0 0 0 0 0 0 0 0 0 0 0 0 0 0 0 0 0 0 0 0 0 0 0 0 0 0 0 0 0
0 0 0 0 0 0 0 0 0 0 0 0 0 0 0 0 0 0 0 0 0 0 0 0 0 0 0 0 0 0 0 0 0 0 0 0 0 0 0 0 0 0 0
0 0 0 0 0 0 0 0 0 0 0 0 0 0 0 0 0 0 0 0 0 0 0 0 0 0 0 0 0 0 0 0 0 0 0 0 0 0 0 0 0 0 0
0 0 0 0 0 0 0 0 0 0 0 0 0 0 0 0 0 0 0 0 0 0 0 0 0 0 0 0 0 0 0 0 0 0 0 0 0 0 0 0 0 0 0
0 0 0 0 0 0 0 0 0 0 0 0 0 0 0 0 0 0 0 0 0 0 0 0 0 0 0 0 0 0 0 0 0 0 0 0 0 0 0 0 0 0 0
0 0 0 0 0 0 0 0 0 0 0 0 0 0 0 0 0 0 0 0 0 0 0 0 0 0 0 0 0 0 0 0 0 0 0 0 0 0 0 0 0 0 0
0 0 0 0 0 0 0 0 0 0 0 0 0 0 0 0 0 0 0 0 0 0 0 0 0 0 0 0 0 0 0 0 0 0 0 0 0 0 0 0 0 0 0
0 0 0 0 0 0 0 0 0 0 0 0 0 0 0 0 0 0 0 0 0 0 0 0 0 0 0 0 0 0 0 0 0 0 0 0 0 0 0 0 0 0 0
0 0 0 0 0 0 0 0 0 0 0 0 0 0 0 0 0 0 0 0 0 0 0 0 0 0 0 0 0 0 0 0 0 0 0 0 0 0 0 0 0 0 0
0 0 0 0 0 0 0 0 0 0 0 0 0 0 0 0 0 0 0 0 0 0 0 0 0 0 0 0 0 0 0 0 0 0 0 0 0 0 0 0 0 0 0
0 0 0 0 0 0 0 0 0 0 0 0 0 0 0 0 0 0 0 0 0 0 0 0 0 0 0 0 0 0 0 0 0 0 0 0 0 0 0 0 0 0 0
0 0 0 0 0 0 0 0 0 0 0 0 0 0 0 0 0 0 0 0 0 0 0 0 0 0 0 0 0 0 0 0 0 0 0 0 0 0 0 0 0 0 0
0 0 0 0 0 0 0 0 0 0 0 0 0 0 0 0 0 0 0 0 0 0 0 0 0 0 0 0 0 0 0 0 0 0 0 0 0 0 0 0 0 0 0
0 0 0 0 0 0 0 0 0 0 0 0 0 0 0 0 0 0 0 0 0 0 0 0 0 0 0 0 0 0 0 0 0 0 0 0 0 0 0 0 0 0 0
0 0 0 0 0 0 0 0 0 0 0 0 0 0 0 0 0 0 0 0 0 0 0 0 0 0 0 0 0 0 0 0 0 0 0 0 0 0 0 0 0 0 0
0 0 0 0 0 0 0 0 0 0 0 0 0 0 0 0 0 0 0 0 0 0 0 0 0 0 0 0 0 0 0 0 0 0 0 0 0 0 0 0 0 0 0
0 0 0 0 0 0 0 0 0 0 0 0 0 0 0 0 0 0 0 0 0 0 0 0 0 0 0 0 0 0 0 0 0 0 0 0 0 0 0 0 0 0 0
0 0 0 0 0 0 0 0 0 0 0 0 0 0 0 0 0 0 0 0 0 0 0 0 0 0 0 0 0 0 0 0 0 0 0 0 0 0 0 0 0 0 0
0 0 0 0 0 0 0 0 0 0 0 0 0 0 0 0 0 0 0 0 0 0 0 0 0 0 0 0 0 0 0 0 0 0 0 0 0 0 0 0 0 0 0
0 0 0 0 0 0 0 0 0 0 0 0 0 0 0 0 0 0 0 0 0 0 0 0 0 0 0 0 0 0 0 0 0 0 0 0 0 0 0 0 0 0 0
0 0 0 0 0 0 0 0 0 0 0 0 0 0 0 0 0 0 0 0 0 0 0 0 0 0 0 0 0 0 0 0 0 0 0 0 0 0 0 0 0 0 0
0 0 0 0 0 0 0 0 0 0 0 0 0 0 0 0 0 0 0 0 0 0 0 0 0 0 0 0 0 0 0 0 0 0 0 0 0 0 0 0 0 0 0
0 0 0 0 0 0 0 0 0 0 0 0 0 0 0 0 0 0 0 0 0 0 0 0 0 0 0 0 0 0 0 0 0 0 0 0 0 0 0 0 0 0 0
Wind_Speed
3 3 3 4 4 3 3 4 4 4 4 4 5 5 5 6 6 5 6 6 6 6 6 6 6 5 4 4 4 4 4 4 5 3 1 2 4 6 6 6 6 5 6
6 6 6 6 5 5 6 6 6 6 6 5 5 5 6 6 5 6 7 6 6 7 7 6 6 5 5 4 4 4 4 5 4 4 3 3 4 7 7 7 6 6 6
7 7 7 7 7 7 8 8 7 7 7 6 6 6 6 6 6 6 6 7 7 7 7 7 7 6 6 4 4 4 4 4 4 4 4 3 4 6 8 7 7 6 7
8 8 8 9 9 9 9 8 8 8 7 8 7 7 7 6 6 6 6 6 6 6 6 6 7 7 7 6 5 5 4 4 4 5 5 5 5 7 7 8 6 4 5
8 9 10 11 10 9 9 9 9 8 9 8 7 7 7 6 6 6 5 6 6 6 6 6 7 8 10 7 5 5 4 4 5 6 6 5 6 8 7 6 8 7 5
9 10 10 9 9 9 9 9 8 8 9 8 8 8 7 7 8 9 7 6 6 6 6 6 6 7 9 9 9 8 8 7 7 6 6 8 8 8 7 9 9 8 5
9 9 9 9 9 9 10 8 8 9 8 8 8 8 8 9 12 12 12 7 6 6 6 6 5 5 7 5 5 5 5 8 9 8 9 9 10 10 11 10 8 6 5
9 9 9 8 9 9 8 8 8 7 7 7 7 8 8 10 13 12 12 7 6 7 7 7 6 5 6 6 4 3 2 3 5 6 7 7 9 9 10 10 10 7 7
8 8 8 8 8 8 8 8 7 6 7 7 6 8 8 9 12 12 10 5 5 7 6 6 6 6 8 9 6 5 4 2 3 8 10 11 13 14 12 10 9 10 8
9 9 8 8 8 8 8 8 7 6 7 7 7 7 8 8 11 12 10 4 5 5 4 5 8 7 8 9 7 7 7 5 7 9 10 11 11 12 13 10 10 10 9
9 8 8 8 8 8 8 7 7 6 6 6 7 7 7 9 10 13 12 5 5 4 3 3 4 8 8 8 7 6 9 8 7 9 8 8 7 7 6 6 6 9 8
10 10 9 9 9 9 7 6 6 6 6 6 6 6 5 6 9 10 12 10 7 5 3 3 3 7 9 9 6 8 11 10 7 7 7 7 6 6 5 5 6 5 4
11 11 10 10 9 8 8 8 7 6 6 6 5 5 5 4 5 9 10 9 9 5 3 4 4 6 7 7 9 11 10 7 7 8 7 5 4 6 7 7 7 7 7
11 11 9 9 9 8 7 6 6 6 6 6 5 5 4 4 3 3 3 4 6 4 3 3 4 5 3 5 8 7 5 6 7 8 7 6 5 5 6 7 7 7 6
12 10 9 8 8 7 7 6 7 7 7 6 5 5 5 4 6 8 7 5 5 4 4 2 2 3 3 4 5 4 4 6 6 6 7 7 6 6 5 4 5 5 5
10 9 7 6 6 6 6 6 9 9 10 12 11 7 6 7 7 9 10 10 9 9 5 3 3 4 4 5 6 5 5 6 7 7 8 7 7 7 5 4 5 6 7
10 9 6 6 6 6 5 5 5 5 7 8 9 10 9 8 9 10 10 10 10 9 4 3 4 4 4 4 5 5 5 6 7 8 8 7 7 6 6 6 5 5 5
9 10 8 6 5 5 5 5 4 4 3 2 3 6 9 9 10 11 12 9 5 5 3 4 4 4 4 4 5 5 6 7 7 7 7 7 7 6 6 6 5 6 5
8 6 5 5 4 4 4 4 4 4 4 3 2 2 5 8 8 9 10 4 5 5 4 4 3 4 4 4 5 6 7 7 7 7 7 7 6 6 6 6 5 8 6
7 10 8 4 3 3 3 3 3 3 3 3 4 4 5 5 5 6 5 3 4 4 4 4 4 3 3 4 5 6 7 7 7 6 6 6 6 6 7 8 7 7 5
6 7 9 4 2 2 2 3 3 3 3 3 4 6 10 7 7 7 5 4 4 4 4 4 3 4 3 4 4 6 8 7 6 6 7 6 7 6 6 7 7 7 6
5 4 3 2 1 1 2 2 2 3 3 3 3 5 11 6 5 5 5 4 3 3 3 3 3 3 4 5 6 6 7 7 7 7 7 6 6 7 7 6 6 6 6
5 4 3 2 0 1 1 1 2 2 3 3 5 6 6 4 5 5 5 4 4 3 3 2 3 3 3 4 6 7 8 8 8 9 8 7 7 7 7 7 8 7 6
4 3 3 1 0 1 1 1 2 2 3 4 5 6 5 5 5 5 4 4 4 3 3 3 4 5 7 6 5 5 6 8 8 9 11 9 8 6 6 6 7 8 7
3 2 2 2 1 1 2 2 2 3 3 4 4 5 5 4 4 4 4 4 4 4 4 4 3 6 10 10 8 7 10 12 10 9 8 8 8 8 7 7 6 6 5
4 3 3 2 2 2 2 2 3 3 3 4 4 4 4 4 4 4 3 3 3 3 3 3 5 7 9 9 10 11 11 11 11 11 8 7 8 7 7 6 7 6 6
Wind_Direction
234 234 246 256 262 270 275 278 283 288 299 306 306 307 303 298 295 281 264 256 246 247 244 240 243 241 242 240 232 223 217 207 228 231 196 145 132 129 117 106 103 94 97
233 232 236 245 253 260 264 267 269 274 278 279 284 290 293 295 291 285 280 272 253 248 246 243 246 243 243 241 234 232 225 211 207 211 181 159 138 141 131 121 110 101 94
240 240 245 248 248 250 254 258 260 261 266 269 268 271 276 282 285 282 277 271 260 250 245 240 240 235 244 243 238 238 230 220 201 187 176 152 134 144 134 119 109 104 100
242 239 242 245 243 244 247 249 250 249 254 260 257 255 259 266 273 278 285 275 265 260 252 241 236 228 231 236 240 237 226 211 193 177 166 154 148 147 140 133 124 114 108
243 240 240 242 241 242 243 245 247 245 248 248 250 251 253 258 263 268 274 284 274 271 264 251 240 234 228 223 227 225 211 202 187 176 167 156 154 157 150 141 135 122 94
241 242 242 240 239 238 239 241 241 242 244 243 242 245 249 257 266 270 268 272 270 264 265 263 253 241 232 226 225 220 208 198 191 178 172 166 160 151 141 145 142 139 127
246 246 243 240 240 238 239 237 234 235 234 233 238 240 243 249 256 262 264 258 256 257 256 251 256 242 221 215 214 217 216 206 193 177 170 167 161 158 151 150 151 144 128
256 255 252 247 244 242 239 236 234 230 227 227 231 236 241 250 252 255 257 252 249 251 248 240 241 241 221 202 188 181 187 190 187 177 165 160 154 153 152 149 143 119 105
265 260 257 252 252 250 244 240 235 227 227 225 224 228 234 247 251 253 248 240 245 250 249 241 232 231 221 199 178 168 155 144 136 142 139 136 138 139 140 136 137 136 133
273 270 264 257 252 249 246 242 237 229 231 231 232 229 229 238 247 248 238 220 237 247 254 243 234 222 204 193 182 169 161 155 138 127 124 126 132 135 140 147 148 145 141
276 274 271 265 261 255 247 241 237 235 235 233 235 237 234 236 245 244 233 210 217 227 241 249 235 206 188 186 183 175 164 149 137 131 127 125 126 131 139 140 147 151 149
277 274 270 265 265 272 252 244 237 230 231 234 236 245 245 242 241 240 229 217 206 205 222 232 239 202 181 172 167 153 146 139 131 127 124 125 129 131 130 128 130 126 128
282 277 275 271 263 258 250 245 242 233 230 232 227 234 247 247 242 234 221 209 203 199 206 217 214 195 180 166 153 148 146 140 136 131 129 124 119 121 117 110 104 99 86
282 278 273 271 267 259 251 242 237 232 227 225 222 227 235 240 231 209 190 183 186 188 182 187 175 176 178 160 154 150 147 143 141 135 129 120 111 113 120 124 122 115 97
277 274 271 266 262 256 248 241 236 231 220 213 217 212 208 222 223 196 178 174 171 167 149 145 145 158 168 158 151 142 135 134 129 124 127 125 122 120 118 112 115 109 109
281 274 266 261 257 250 250 257 246 238 238 230 228 217 215 216 203 187 180 166 161 156 146 158 165 170 168 165 155 144 142 143 140 135 135 135 135 132 122 111 112 119 122
283 279 269 260 255 248 241 240 251 250 241 239 233 224 216 198 182 171 164 157 158 155 156 167 171 176 167 163 156 149 148 146 142 143 143 141 137 132 128 126 122 121 122
290 283 279 263 252 242 236 231 225 223 224 239 235 215 199 183 169 162 150 139 153 175 174 169 175 176 163 159 157 149 143 141 141 142 143 141 139 136 136 140 141 137 133
298 286 277 266 252 239 229 221 218 216 209 197 158 138 159 152 149 158 155 154 166 177 173 167 173 173 161 157 153 148 145 145 146 144 145 145 144 141 144 150 148 146 134
303 301 299 274 251 232 215 209 204 198 195 183 164 150 141 136 147 166 184 178 169 171 170 166 165 168 168 158 148 146 145 145 146 144 148 148 148 148 150 151 152 153 153
307 307 312 305 255 213 199 195 189 183 181 174 165 165 162 160 166 172 179 182 176 170 166 165 167 177 178 162 151 148 148 151 152 150 150 150 147 146 149 152 154 153 150
309 304 305 304 280 198 180 175 172 171 169 164 146 150 164 155 159 164 174 178 175 170 167 170 182 188 180 167 159 152 152 154 155 152 149 147 146 146 144 144 147 149 151
318 320 323 327 14 137 148 159 159 160 159 155 143 142 159 160 156 162 170 171 172 176 175 183 200 202 179 165 161 160 160 162 161 155 150 147 147 148 148 149 152 152 159
322 325 338 353 47 104 124 137 139 140 137 134 138 145 154 152 153 160 161 159 171 181 191 206 205 188 166 159 158 156 154 154 152 153 151 149 149 149 151 153 157 164 169
341 344 358 11 46 93 105 108 110 115 120 126 130 135 139 143 147 150 153 167 179 186 195 199 184 168 160 158 157 152 150 150 151 151 148 147 150 154 157 160 161 161 166
355 3 10 20 42 79 102 112 113 113 116 123 125 132 141 145 144 148 157 166 169 171 175 180 165 156 153 152 152 149 151 153 153 152 148 146 150 157 158 161 168 170 173